This demonstration page uses our WeatherBlox Daily Observations layout. Learn more.

Hourly Observations for January 31, 2016

Temp ( °F °C ) Dew Point ( °F °C ) Humidity (%) Winds ( mph kmh ) Pressure ( in mb ) Visibility ( mi km ) Precip ( " mm )
12:15 am 00:15 Cloudy 39 4 32 0 75 75 N 17 28 29.71 1006 10 16.09344 0 0
12:35 am 00:35 Cloudy 39 4 34 1 81 81 N 23 37 29.74 1007 10 16.09344 0 0
12:55 am 00:55 Cloudy with Light Rain 37 3 32 0 81 81 N 17 28 29.77 1008 10 16.09344 0 0
1:15 am 01:15 Cloudy with Light Drizzle 36 2 34 1 93 93 N 16 26 29.77 1008 10 16.09344 0 0
1:35 am 01:35 Cloudy 36 2 32 0 87 87 N 17 28 29.77 1008 10 16.09344 0 0
1:55 am 01:55 Mostly Cloudy 36 2 32 0 87 87 N 15 24 29.74 1007 10 16.09344 0 0
2:15 am 02:15 Partly Cloudy 34 1 32 0 93 93 N 12 19 29.77 1008 10 16.09344 0 0
2:35 am 02:35 Partly Cloudy 32 0 32 0 100 100 N 9 15 29.74 1007 10 16.09344 0 0
2:55 am 02:55 Partly Cloudy 32 0 32 0 100 100 N 5 7 29.77 1008 10 16.09344 0 0
3:15 am 03:15 Clear 32 0 32 0 100 100 NNW 6 9 29.77 1008 10 16.09344 0 0
3:35 am 03:35 Partly Cloudy 32 0 32 0 100 100 NNW 7 11 29.74 1007 10 16.09344 0 0
3:55 am 03:55 Partly Cloudy 32 0 32 0 100 100 NNW 7 11 29.77 1008 10 16.09344 0 0
4:15 am 04:15 Partly Cloudy 32 0 32 0 100 100 NW 8 13 29.77 1008 10 16.09344 0 0
4:35 am 04:35 Mostly Cloudy 32 0 32 0 100 100 WNW 7 11 29.83 1010 10 16.09344 0 0
4:55 am 04:55 Cloudy 34 1 32 0 93 93 WNW 10 17 29.8 1009 10 16.09344 0 0
5:15 am 05:15 Cloudy 34 1 32 0 93 93 WNW 9 15 29.77 1008 10 16.09344 0 0
5:35 am 05:35 Cloudy 34 1 32 0 93 93 NNW 8 13 29.77 1008 10 16.09344 0 0
5:55 am 05:55 Cloudy 34 1 32 0 93 93 WNW 8 13 29.8 1009 10 16.09344 0 0
6:15 am 06:15 Mostly Cloudy 34 1 32 0 93 93 NW 8 13 29.8 1009 10 16.09344 0 0
6:35 am 06:35 Mostly Cloudy 34 1 32 0 93 93 WNW 8 13 29.83 1010 10 16.09344 0 0
6:55 am 06:55 Mostly Cloudy 34 1 32 0 93 93 WNW 8 13 29.85 1011 10 16.09344 0 0
7:15 am 07:15 Partly Cloudy 36 2 32 0 87 87 W 7 11 29.85 1011 10 16.09344 0 0
7:35 am 07:35 Mostly Cloudy 34 1 32 0 93 93 W 7 11 29.85 1011 10 16.09344 0 0
7:55 am 07:55 Cloudy 34 1 32 0 93 93 W 7 11 29.85 1011 10 16.09344 0 0
8:15 am 08:15 Cloudy 34 1 32 0 93 93 WNW 7 11 29.85 1011 10 16.09344 0 0
8:35 am 08:35 Cloudy 34 1 32 0 93 93 WNW 7 11 29.85 1011 10 16.09344 0 0
8:55 am 08:55 Cloudy 36 2 32 0 87 87 W 7 11 29.85 1011 10 16.09344 0 0
9:15 am 09:15 Cloudy 36 2 32 0 87 87 W 8 13 29.88 1012 10 16.09344 0 0
9:35 am 09:35 Cloudy 36 2 32 0 87 87 WNW 7 11 29.88 1012 10 16.09344 0 0
9:55 am 09:55 Cloudy 36 2 32 0 87 87 W 8 13 29.88 1012 10 16.09344 0 0
10:15 am 10:15 Partly Cloudy 36 2 32 0 87 87 WNW 7 11 29.88 1012 10 16.09344 0 0
10:35 am 10:35 Sunny 37 3 32 0 81 81 WNW 10 17 29.88 1012 10 16.09344 0 0
10:55 am 10:55 Sunny 41 5 32 0 70 70 NW 13 20 29.85 1011 10 16.09344 0 0
11:15 am 11:15 Sunny 43 6 32 0 66 66 NW 13 20 29.85 1011 10 16.09344 0 0
11:35 am 11:35 Sunny 43 6 30 -1 61 61 NW 14 22 29.85 1011 10 16.09344 0 0
11:55 am 11:55 Sunny 45 7 28 -2 53 53 NW 14 22 29.85 1011 10 16.09344 0 0
12:15 pm 12:15 Sunny 45 7 30 -1 57 57 NW 12 19 29.85 1011 10 16.09344 0 0
12:35 pm 12:35 Sunny 46 8 28 -2 50 50 NW 13 20 29.83 1010 10 16.09344 0 0
12:55 pm 12:55 Sunny 46 8 27 -3 46 46 NNW 14 22 29.83 1010 10 16.09344 0 0
1:15 pm 13:15 Sunny 48 9 25 -4 40 40 NW 15 24 29.83 1010 10 16.09344 0 0
1:35 pm 13:35 Sunny 46 8 27 -3 46 46 NW 12 19 29.83 1010 10 16.09344 0 0
1:55 pm 13:55 Sunny 48 9 25 -4 40 40 NNW 13 20 29.83 1010 10 16.09344 0 0
2:15 pm 14:15 Sunny 48 9 25 -4 40 40 NW 12 19 29.83 1010 10 16.09344 0 0
2:35 pm 14:35 Sunny 48 9 21 -6 34 34 NW 12 19 29.83 1010 10 16.09344 0 0
2:55 pm 14:55 Sunny 48 9 21 -6 34 34 NNW 12 19 29.83 1010 10 16.09344 0 0
3:15 pm 15:15 Sunny 48 9 18 -8 29 29 NW 15 24 29.83 1010 10 16.09344 0 0
3:35 pm 15:35 Sunny 48 9 18 -8 29 29 NW 12 19 29.83 1010 10 16.09344 0 0
3:55 pm 15:55 Sunny 48 9 16 -9 27 27 NW 12 19 29.83 1010 10 16.09344 0 0
4:15 pm 16:15 Sunny 46 8 16 -9 29 29 NW 12 19 29.85 1011 10 16.09344 0 0
4:35 pm 16:35 Sunny 46 8 18 -8 32 32 NW 10 17 29.85 1011 10 16.09344 0 0
4:55 pm 16:55 Sunny 45 7 18 -8 34 34 NW 7 11 29.88 1012 10 16.09344 0 0
5:15 pm 17:15 Sunny 43 6 18 -8 36 36 NNW 6 9 29.91 1013 10 16.09344 0 0
5:35 pm 17:35 Sunny 41 5 19 -7 42 42 NNW 6 9 29.88 1012 10 16.09344 0 0
6:15 pm 18:15 Clear 36 2 18 -8 48 48 WNW 3 6 29.94 1014 10 16.09344 0 0
6:35 pm 18:35 Clear 37 3 19 -7 48 48 W 6 9 29.97 1015 10 16.09344 0 0
6:55 pm 18:55 Clear 36 2 19 -7 52 52 W 6 9 29.97 1015 10 16.09344 0 0
7:15 pm 19:15 Clear 34 1 19 -7 56 56 W 6 9 30 1016 10 16.09344 0 0
7:35 pm 19:35 Clear 36 2 19 -7 52 52 W 6 9 29.97 1015 10 16.09344 0 0
7:55 pm 19:55 Clear 32 0 19 -7 60 60 Calm 30.03 1017 10 16.09344 0 0
8:15 pm 20:15 Clear 30 -1 21 -6 69 69 Calm 30.06 1018 10 16.09344 0 0
8:35 pm 20:35 Clear 32 0 21 -6 64 64 WNW 3 6 30.03 1017 10 16.09344 0 0
8:55 pm 20:55 Clear 30 -1 21 -6 69 69 NW 3 6 30.06 1018 10 16.09344 0 0
9:15 pm 21:15 Clear 32 0 21 -6 64 64 NW 3 6 30.03 1017 10 16.09344 0 0
9:35 pm 21:35 Partly Cloudy 32 0 21 -6 64 64 Calm 30.03 1017 10 16.09344 0 0
9:55 pm 21:55 Partly Cloudy 32 0 21 -6 64 64 Calm 30.06 1018 10 16.09344 0 0
10:15 pm 22:15 Mostly Cloudy 32 0 21 -6 64 64 Calm 30.06 1018 10 16.09344 0 0
10:35 pm 22:35 Mostly Cloudy 32 0 21 -6 64 64 Calm 30.06 1018 10 16.09344 0 0
10:55 pm 22:55 Mostly Cloudy 30 -1 23 -5 75 75 NNE 3 6 30.09 1019 10 16.09344 0 0
11:15 pm 23:15 Mostly Cloudy 32 0 23 -5 69 69 NE 6 9 30.03 1017 10 16.09344 0 0
11:35 pm 23:35 Partly Cloudy 32 0 23 -5 69 69 ENE 6 9 30.03 1017 10 16.09344 0 0
11:55 pm 23:55 Clear 34 1 21 -6 60 60 Calm 30.03 1017 10 16.09344 0 0

Powered by AerisWeather